[[{"header":{"parameterUnit":"m.s-1","parameterCategory":2,"la1":30.2991,"la2":30.254,"lo1":-89.0895,"lo2":-89.0444,"dy":0.0017,"dx":0.0017,"nx":28,"ny":28,"refTime":"2025-04-20T03:00:00:Z","depth":"0","parameterNumber":2,"parameterNumberName":"U-component_of_CURRENTS"},"data":[0,0,0,0,0,0,0,0,0,0,0,0,0,0,0,0,0,0,0,0,0,0,0,0,0,0,0,0,0,0,0,0,0,0,0,0,0,0,0,0,0,0,0,0,0,0,0,0,0,0,0,0,0,0,0,0,0,0,-0.2217,-0.2217,0,-0.2195,-0.2194,-0.2193,-0.2141,-0.214,-0.214,-0.2139,-0.2105,-0.2105,-0.2104,0,0,0,0,0,0,0,0,0,0,0,0,0,-0.2173,-0.2174,-0.2217,-0.2217,-0.2217,-0.2195,-0.2194,-0.2193,-0.2141,-0.214,-0.214,-0.2139,-0.2105,-0.2105,-0.2104,0,0,0,0,0,0,0,0,0,0,0,0,0,-0.2171,-0.2174,-0.2217,-0.2192,-0.219,-0.2195,-0.2194,-0.2193,-0.2141,-0.214,-0.2139,-0.2139,-0.2105,-0.2105,-0.2104,-0.212,0,0,-0.2103,-0.2103,0,0,0,0,0,0,0,0,-0.2171,-0.2172,-0.2196,-0.2194,-0.2192,-0.2174,-0.2166,-0.217,-0.2142,-0.2155,-0.2139,-0.2138,-0.2131,-0.2128,-0.2119,-0.2119,-0.2117,-0.2103,-0.2103,-0.2102,-0.2102,0,0,0,0,0,0,0,-0.2171,-0.2172,-0.2203,-0.2196,-0.2194,-0.2169,-0.2167,-0.2166,-0.2144,-0.2153,-0.2151,-0.2157,-0.2129,-0.212,-0.2118,-0.2117,-0.2103,-0.2102,-0.2102,-0.2102,-0.2116,-0.2116,0,0,0,0,0,0,-0.2188,-0.2173,-0.2204,-0.2203,-0.2184,-0.2171,-0.2169,-0.2177,-0.2144,-0.214,-0.2157,-0.2154,-0.2121,-0.2119,-0.2117,-0.2118,-0.2102,-0.2102,-0.2102,-0.2115,-0.2116,-0.2117,0,0,0,0,0,0,-0.2187,-0.2191,-0.2205,-0.2191,-0.2192,-0.2173,-0.2182,-0.2177,-0.217,-0.2149,-0.2143,-0.2157,-0.212,-0.2118,-0.2119,-0.2117,-0.2102,-0.2101,-0.2114,-0.2115,-0.2116,-0.2131,0,0,0,0,0,0,-0.2186,-0.219,-0.221,-0.2192,-0.2193,-0.2214,-0.2183,-0.2177,-0.2178,-0.2173,-0.2147,-0.2142,-0.2119,-0.212,-0.2119,-0.2116,-0.2101,-0.2114,-0.2115,-0.2116,-0.2129,-0.2132,-0.2134,0,0,0,0,0,-0.2184,-0.2229,-0.2212,-0.2216,-0.2218,-0.2215,-0.2213,-0.2192,-0.2179,-0.2181,-0.2163,-0.2143,-0.2127,-0.2121,-0.2119,-0.2116,-0.2113,-0.2114,-0.2116,-0.2128,-0.2131,-0.2134,0,0,0,0,0,0,-0.2222,-0.2227,-0.2208,-0.2251,-0.2232,-0.2208,-0.2218,-0.2202,-0.2189,-0.2181,-0.2156,-0.2151,-0.2148,-0.214,-0.2134,-0.2125,-0.2115,-0.2117,-0.2125,-0.2128,-0.2131,-0.2115,-0.2101,0,0,0,0,0,-0.224,-0.2265,-0.2251,-0.2276,-0.2273,-0.2243,-0.2243,-0.2221,-0.2207,-0.2199,-0.2182,-0.2166,-0.2154,-0.2148,-0.2137,-0.2141,-0.2098,-0.2137,-0.214,-0.2142,-0.2129,-0.2045,-0.2038,-0.2122,-0.2121,-0.2121,0,0,-0.2248,-0.2265,-0.227,-0.2285,-0.2265,-0.2257,-0.2239,-0.2236,-0.2223,-0.22,-0.2188,-0.2176,-0.2158,-0.2151,-0.2149,-0.2143,-0.2104,-0.2144,-0.2145,-0.2131,-0.2046,-0.2037,-0.2029,-0.2123,-0.2122,-0.2122,0,0,-0.2267,-0.2299,-0.2306,-0.2307,-0.2296,-0.2282,-0.2284,-0.226,-0.2245,-0.2238,-0.2212,-0.2197,-0.2193,-0.2164,-0.2153,-0.2168,-0.2119,-0.2175,-0.2171,-0.209,-0.2081,-0.2073,-0.2035,-0.2023,-0.2174,-0.2174,-0.2174,0,-0.2277,-0.2285,-0.2305,-0.2313,-0.2309,-0.2294,-0.2278,-0.2273,-0.2251,-0.2225,-0.2237,-0.2191,-0.219,-0.215,-0.2164,-0.2168,-0.2128,-0.2159,-0.2089,-0.208,-0.2071,-0.2034,-0.202,-0.2175,-0.2175,-0.2175,-0.2175,0,-0.228,-0.2291,-0.2301,-0.2298,-0.2304,-0.2296,-0.2288,-0.2278,-0.2265,-0.2239,-0.2203,-0.2197,-0.2158,-0.2169,-0.2179,-0.2122,-0.2118,-0.2099,-0.2074,-0.2062,-0.2026,-0.2011,-0.2176,-0.2176,-0.2176,-0.2176,0,0,-0.2265,-0.2292,-0.229,-0.2268,-0.2292,-0.2279,-0.2281,-0.2244,-0.2205,-0.2205,-0.2145,-0.2157,-0.2137,-0.2125,-0.2124,-0.2079,-0.2015,-0.2075,-0.2071,-0.2025,-0.1857,-0.1848,-0.1832,-0.1974,-0.1971,-0.1968,-0.1866,0,-0.2235,-0.2239,-0.2268,-0.224,-0.2222,-0.2234,-0.2224,-0.2201,-0.2182,-0.2133,-0.2117,-0.2073,-0.2125,-0.2099,-0.2067,-0.2023,-0.1974,-0.2046,-0.1886,-0.1882,-0.1862,-0.1813,-0.1767,-0.167,-0.1852,-0.1849,-0.1848,0,-0.22,-0.2208,-0.219,-0.217,-0.2162,-0.2159,-0.2113,-0.2104,-0.2061,-0.2042,-0.2009,-0.1992,-0.1958,-0.1986,-0.19,-0.1943,-0.1903,-0.1872,-0.1866,-0.1835,-0.1844,-0.1706,-0.1636,-0.1641,-0.1825,-0.1827,-0.1828,0,-0.2135,-0.2137,-0.2116,-0.212,-0.2116,-0.2098,-0.2091,-0.2063,-0.2029,-0.1978,-0.194,-0.1894,-0.1864,-0.1806,-0.1805,-0.1827,-0.1695,-0.1702,-0.1652,-0.1653,-0.157,-0.1567,-0.1467,-0.1597,-0.1597,-0.1597,-0.1598,0,-0.2084,-0.2055,-0.2082,-0.2068,-0.2005,-0.2042,-0.1973,-0.1957,-0.1932,-0.1881,-0.1887,-0.184,-0.1812,-0.1759,-0.1747,-0.1671,-0.1643,-0.1631,-0.1606,-0.1581,-0.1581,-0.1547,-0.1571,-0.1594,-0.1594,-0.1595,-0.1596,0,-0.1989,-0.2026,-0.1978,-0.1978,-0.197,-0.1923,-0.1903,-0.1861,-0.1862,-0.18,-0.1783,-0.1768,-0.1712,-0.169,-0.1596,-0.1589,-0.149,-0.149,-0.1496,-0.1473,-0.143,-0.1458,-0.1316,-0.128,-0.1393,-0.1391,-0.139,0,-0.1936,-0.1913,-0.189,-0.1865,-0.186,-0.1818,-0.1791,-0.1803,-0.1782,-0.1761,-0.1727,-0.1674,-0.1627,-0.1519,-0.1477,-0.1406,-0.1426,-0.133,-0.1354,-0.14,-0.1411,-0.1435,-0.1418,-0.1264,-0.1262,-0.126,-0.1259,0,-0.1808,-0.181,-0.1771,-0.1728,-0.1701,-0.1663,-0.1648,-0.1631,-0.1661,-0.163,-0.1601,-0.1562,-0.1487,-0.1401,-0.1337,-0.1298,-0.131,-0.1295,-0.1305,-0.1264,-0.1314,-0.1278,-0.1405,-0.1245,-0.1246,-0.1247,-0.1248,-0.1249,-0.169,-0.163,-0.1603,-0.1546,-0.1533,-0.1521,-0.1476,-0.1504,-0.1472,-0.144,-0.1478,-0.1396,-0.1358,-0.1255,-0.1224,-0.1166,-0.1189,-0.1141,-0.1161,-0.1176,-0.1157,-0.1285,-0.1125,-0.1126,-0.1126,-0.1127,-0.1127,0,-0.1525,-0.1484,-0.1431,-0.1379,-0.1344,-0.1382,-0.1377,-0.1336,-0.1306,-0.1291,-0.1262,-0.1206,-0.115,-0.1127,-0.1091,-0.1051,-0.1032,-0.1038,-0.1053,-0.1032,-0.1092,-0.1106,-0.0979,-0.0979,-0.0979,-0.0979,-0.0979,-0.0979,-0.1429,-0.1325,-0.1304,-0.1201,-0.1192,-0.1124,-0.1117,-0.1081,-0.1047,-0.0964,-0.0923,-0.0909,-0.0959,-0.1082,-0.1061,-0.1021,-0.1007,-0.0977,-0.0991,-0.1054,-0.1065,-0.1077,-0.1094,-0.0966,-0.0966,-0.0896,-0.0895,-0.0895]},{"header":{"parameterUnit":"m.s-1","parameterCategory":2,"la1":30.2991,"la2":30.254,"lo1":-89.0895,"lo2":-89.0444,"dy":0.0017,"dx":0.0017,"nx":28,"ny":28,"refTime":"2025-04-20T03:00:00:Z","depth":"0","parameterNumber":3,"parameterNumberName":"V-component_of_CURRENTS"},"data":[0,0,0,0,0,0,0,0,0,0,0,0,0,0,0,0,0,0,0,0,0,0,0,0,0,0,0,0,0,0,0,0,0,0,0,0,0,0,0,0,0,0,0,0,0,0,0,0,0,0,0,0,0,0,0,0,0,0,-0.0175,-0.0174,0,-0.0095,-0.0094,-0.0093,-0.0043,-0.0042,-0.0042,-0.0042,0.0096,0.0099,0.0102,0,0,0,0,0,0,0,0,0,0,0,0,0,-0.0211,-0.0211,-0.0175,-0.0174,-0.0173,-0.0095,-0.0094,-0.0093,-0.0043,-0.0042,-0.0042,-0.0042,0.0095,0.0099,0.0103,0,0,0,0,0,0,0,0,0,0,0,0,0,-0.0171,-0.0211,-0.0175,-0.0138,-0.0133,-0.0095,-0.0094,-0.0093,-0.0043,-0.0042,-0.0042,-0.0041,0.0093,0.0098,0.0103,0.0122,0,0,0.0118,0.012,0,0,0,0,0,0,0,0,-0.0173,-0.017,-0.0144,-0.014,-0.0135,-0.0077,-0.0056,-0.0018,-0.0043,-0.0079,-0.0042,-0.0041,0.0044,0.0053,0.0064,0.0128,0.0134,0.0119,0.0122,0.0124,0.0125,0,0,0,0,0,0,0,-0.0176,-0.0172,-0.0144,-0.0143,-0.0138,-0.0099,-0.0094,-0.0049,-0.0022,-0.0075,-0.0071,-0.0061,0.0046,0.0059,0.0068,0.0136,0.0119,0.0123,0.0126,0.0128,0.0242,0.0242,0,0,0,0,0,0,-0.0188,-0.0176,-0.0147,-0.0142,-0.0152,-0.0099,-0.0093,-0.0097,-0.0023,-0.0011,-0.0061,-0.0059,0.005,0.0062,0.0073,0.0117,0.0124,0.0128,0.0131,0.0242,0.0242,0.0242,0,0,0,0,0,0,-0.019,-0.0187,-0.015,-0.0155,-0.0147,-0.01,-0.0105,-0.0096,-0.0079,-0.0013,-0.0,-0.0052,0.0051,0.0066,0.0115,0.0123,0.0131,0.0135,0.0242,0.0242,0.0242,0.0195,0,0,0,0,0,0,-0.0191,-0.0189,-0.019,-0.0157,-0.0148,-0.0132,-0.0105,-0.0095,-0.0073,-0.0069,-0.0001,0.0012,0.0053,0.0107,0.012,0.013,0.0139,0.0241,0.0242,0.0242,0.0197,0.0194,0.0191,0,0,0,0,0,-0.0193,-0.0197,-0.0191,-0.0187,-0.0154,-0.0132,-0.0124,-0.0088,-0.0073,-0.007,-0.0022,0.001,0.0117,0.0111,0.0126,0.0137,0.0241,0.0242,0.0242,0.0198,0.0194,0.0191,0,0,0,0,0,0,-0.0219,-0.0192,-0.0184,-0.0182,-0.0161,-0.0123,-0.0112,-0.0091,-0.0052,-0.0047,0.0014,0.0031,0.0076,0.011,0.0103,0.0169,0.0183,0.0186,0.0145,0.0142,0.014,0.0133,0.0143,0,0,0,0,0,-0.0226,-0.0221,-0.0194,-0.0195,-0.0186,-0.0152,-0.0136,-0.0118,-0.008,-0.0063,-0.0015,0.0037,0.0086,0.0116,0.016,0.0199,0.0225,0.0215,0.0212,0.0209,0.0213,0.0251,0.0252,0.0242,0.0242,0.0242,0,0,-0.0244,-0.0221,-0.0224,-0.0199,-0.018,-0.017,-0.0141,-0.0127,-0.0111,-0.0053,-0.0015,0.0028,0.0093,0.0135,0.0159,0.0168,0.0223,0.0209,0.0207,0.0213,0.0252,0.0253,0.0254,0.0242,0.0242,0.0242,0,0,-0.0269,-0.0253,-0.0258,-0.0238,-0.021,-0.0185,-0.0184,-0.015,-0.0127,-0.009,-0.0043,0.0003,0.0075,0.0122,0.0158,0.0166,0.0205,0.0179,0.0167,0.0203,0.0204,0.0206,0.0227,0.023,0.0181,0.0181,0.018,0,-0.0289,-0.0289,-0.0256,-0.0248,-0.0232,-0.0196,-0.0198,-0.0167,-0.0121,-0.0098,-0.0085,0.0023,0.0071,0.0138,0.014,0.0162,0.0182,0.0173,0.0199,0.0201,0.0203,0.0225,0.0229,0.0178,0.0179,0.0179,0.0179,0,-0.0315,-0.031,-0.031,-0.0287,-0.0266,-0.0263,-0.022,-0.0198,-0.0165,-0.0129,-0.0068,-0.0003,0.0062,0.0084,0.0119,0.0163,0.0171,0.0187,0.0205,0.0202,0.0224,0.023,0.0175,0.0176,0.0177,0.0177,0,0,-0.0379,-0.0339,-0.0339,-0.033,-0.0287,-0.0275,-0.0245,-0.0206,-0.0181,-0.0129,-0.0091,-0.0006,0.0026,0.0067,0.0116,0.0153,0.018,0.0173,0.0176,0.0188,0.0249,0.0286,0.0296,0.0199,0.02,0.0201,0.0253,0,-0.0413,-0.0409,-0.0373,-0.0369,-0.0367,-0.0314,-0.0286,-0.0241,-0.0193,-0.0148,-0.0073,-0.002,0.0022,0.005,0.0095,0.016,0.0195,0.0164,0.0256,0.0259,0.0288,0.0305,0.0344,0.0398,0.0259,0.026,0.0261,0,-0.0455,-0.044,-0.0447,-0.0404,-0.0398,-0.0385,-0.0331,-0.03,-0.0222,-0.0184,-0.0118,-0.006,0.0015,0.004,0.0153,0.013,0.0185,0.0233,0.0236,0.0295,0.0308,0.0383,0.0414,0.0515,0.027,0.0269,0.0268,0,-0.0519,-0.0491,-0.0496,-0.0484,-0.0432,-0.0419,-0.0387,-0.0317,-0.0283,-0.0211,-0.018,-0.0085,-0.0033,0.0047,0.0158,0.015,0.0276,0.0276,0.0362,0.0365,0.043,0.0437,0.057,0.0351,0.0351,0.035,0.035,0,-0.057,-0.0573,-0.0526,-0.053,-0.0519,-0.0468,-0.0446,-0.0398,-0.0331,-0.0282,-0.0205,-0.0145,-0.0028,0.0065,0.0148,0.0281,0.0271,0.0369,0.0389,0.0414,0.0418,0.0536,0.056,0.0352,0.0352,0.0352,0.0351,0,-0.0642,-0.0618,-0.0614,-0.0568,-0.0554,-0.0546,-0.0483,-0.046,-0.0395,-0.0332,-0.0311,-0.0187,-0.0059,0.0061,0.0202,0.0278,0.0454,0.0438,0.0453,0.0475,0.0638,0.0657,0.0788,0.0845,0.0529,0.053,0.0531,0,-0.0676,-0.0686,-0.0649,-0.0644,-0.0625,-0.0599,-0.0579,-0.0505,-0.0469,-0.0343,-0.0313,-0.0179,-0.0051,0.0164,0.0312,0.0464,0.0531,0.0578,0.0578,0.0667,0.0703,0.0706,0.0744,0.0638,0.0639,0.0641,0.0642,0,-0.0729,-0.0718,-0.0705,-0.0698,-0.0684,-0.0659,-0.0618,-0.0592,-0.0491,-0.0403,-0.0266,-0.0156,0.0055,0.0268,0.0458,0.0546,0.0653,0.0615,0.0715,0.0812,0.0818,0.0875,0.0567,0.0656,0.0655,0.0654,0.0653,0.0653,-0.0754,-0.0755,-0.0739,-0.073,-0.0722,-0.0699,-0.065,-0.057,-0.047,-0.0259,-0.0215,0.0043,0.0243,0.053,0.062,0.0831,0.0782,0.0898,0.0915,0.0911,0.0973,0.069,0.0799,0.0798,0.0798,0.0797,0.0797,0,-0.0762,-0.0762,-0.0765,-0.0749,-0.0754,-0.0735,-0.0654,-0.0546,-0.0377,-0.0153,0.0033,0.0362,0.0598,0.0788,0.1028,0.1135,0.1139,0.1184,0.1208,0.1232,0.1002,0.1017,0.117,0.117,0.1169,0.1169,0.1169,0.1169,-0.0762,-0.0764,-0.0763,-0.077,-0.0768,-0.0707,-0.0641,-0.0416,-0.0206,0.0182,0.0474,0.0663,0.0848,0.1172,0.1399,0.1411,0.1498,0.1476,0.1518,0.137,0.1345,0.1321,0.1345,0.1563,0.1564,0.1755,0.1757,0.1758]}],[{"header":{"parameterUnit":"m.s-1","parameterCategory":2,"la1":30.2991,"la2":30.254,"lo1":-89.0895,"lo2":-89.0444,"dy":0.0017,"dx":0.0017,"nx":28,"ny":28,"refTime":"2025-04-20T03:00:00:Z","depth":"2","parameterNumber":2,"parameterNumberName":"U-component_of_CURRENTS"},"data":[0,0,0,0,0,0,0,0,0,0,0,0,0,0,0,0,0,0,0,0,0,0,0,0,0,0,0,0,0,0,0,0,0,0,0,0,0,0,0,0,0,0,0,0,0,0,0,0,0,0,0,0,0,0,0,0,0,0,-0.1871,-0.1872,0,-0.1912,-0.1913,-0.1913,-0.1924,-0.1924,-0.1924,-0.1924,-0.1917,-0.1917,-0.1917,0,0,0,0,0,0,0,0,0,0,0,0,0,-0.1796,-0.1798,-0.1871,-0.1872,-0.1873,-0.1912,-0.1913,-0.1913,-0.1924,-0.1924,-0.1924,-0.1924,-0.1917,-0.1917,-0.1917,0,0,0,0,0,0,0,0,0,0,0,0,0,-0.1831,-0.1798,-0.1871,-0.1884,-0.1886,-0.1912,-0.1913,-0.1913,-0.1924,-0.1924,-0.1924,-0.1924,-0.1917,-0.1917,-0.1917,-0.1919,0,0,-0.1917,-0.1917,0,0,0,0,0,0,0,0,-0.1829,-0.1833,-0.1882,-0.1883,-0.1885,-0.1914,-0.1884,-0.1913,-0.1924,-0.1908,-0.1924,-0.1924,-0.1913,-0.1913,-0.192,-0.1919,-0.1919,-0.1917,-0.1917,-0.1917,-0.1917,0,0,0,0,0,0,0,-0.1827,-0.1832,-0.1886,-0.1882,-0.1885,-0.1886,-0.189,-0.189,-0.1909,-0.191,-0.1911,-0.1918,-0.1913,-0.192,-0.192,-0.1919,-0.1917,-0.1917,-0.1917,-0.1917,-0.1933,-0.1934,0,0,0,0,0,0,-0.1825,-0.183,-0.1885,-0.1887,-0.1858,-0.1887,-0.1892,-0.1904,-0.191,-0.1912,-0.1918,-0.1918,-0.192,-0.192,-0.1919,-0.1936,-0.1917,-0.1916,-0.1916,-0.1933,-0.1933,-0.1934,0,0,0,0,0,0,-0.1824,-0.183,-0.1883,-0.186,-0.1867,-0.1889,-0.1902,-0.1905,-0.1922,-0.1917,-0.1917,-0.1933,-0.192,-0.192,-0.1927,-0.1935,-0.1916,-0.1916,-0.1932,-0.1933,-0.1933,-0.1959,0,0,0,0,0,0,-0.1821,-0.1829,-0.1859,-0.186,-0.1869,-0.1911,-0.1902,-0.1906,-0.1927,-0.1928,-0.193,-0.1929,-0.192,-0.1928,-0.1927,-0.1934,-0.1916,-0.1931,-0.1932,-0.1933,-0.1958,-0.1961,-0.1963,0,0,0,0,0,-0.1819,-0.1851,-0.186,-0.1868,-0.1902,-0.1912,-0.1917,-0.193,-0.1928,-0.1943,-0.194,-0.1929,-0.1933,-0.1928,-0.1928,-0.1935,-0.1931,-0.1932,-0.1933,-0.1956,-0.196,-0.1963,0,0,0,0,0,0,-0.1834,-0.1856,-0.1865,-0.1905,-0.1914,-0.1915,-0.1948,-0.1938,-0.1948,-0.1953,-0.1938,-0.1937,-0.1943,-0.1939,-0.1933,-0.1943,-0.193,-0.1931,-0.1948,-0.1951,-0.1954,-0.1941,-0.1916,0,0,0,0,0,-0.1852,-0.1879,-0.1892,-0.1922,-0.1942,-0.1945,-0.1959,-0.1954,-0.1955,-0.1961,-0.1959,-0.1955,-0.1947,-0.195,-0.1945,-0.1955,-0.1912,-0.1959,-0.1962,-0.1964,-0.1954,-0.1871,-0.1864,-0.1938,-0.1938,-0.1938,0,0,-0.186,-0.188,-0.1894,-0.1927,-0.1948,-0.1958,-0.1954,-0.1975,-0.1964,-0.1957,-0.1966,-0.1966,-0.1951,-0.1957,-0.196,-0.1956,-0.1928,-0.1966,-0.1968,-0.1956,-0.1871,-0.1863,-0.1857,-0.1938,-0.1938,-0.1938,0,0,-0.1875,-0.192,-0.1946,-0.1955,-0.1983,-0.1986,-0.1992,-0.2,-0.2001,-0.2,-0.1989,-0.1993,-0.1991,-0.198,-0.1971,-0.1987,-0.1942,-0.1994,-0.2002,-0.1922,-0.1914,-0.1907,-0.187,-0.1859,-0.1999,-0.1999,-0.1999,0,-0.1892,-0.191,-0.1953,-0.197,-0.1979,-0.1996,-0.2003,-0.2005,-0.2002,-0.1992,-0.2006,-0.1983,-0.1994,-0.1966,-0.1989,-0.1992,-0.1948,-0.199,-0.1922,-0.1914,-0.1906,-0.187,-0.1857,-0.2001,-0.2001,-0.2001,-0.2,0,-0.1885,-0.1924,-0.1944,-0.197,-0.1994,-0.1999,-0.2009,-0.2016,-0.202,-0.2004,-0.1989,-0.1996,-0.1975,-0.1991,-0.2004,-0.1962,-0.1952,-0.193,-0.1908,-0.1899,-0.1863,-0.185,-0.2003,-0.2002,-0.2002,-0.2002,0,0,-0.1869,-0.1926,-0.1937,-0.1946,-0.1985,-0.1989,-0.2002,-0.1996,-0.1968,-0.1983,-0.1939,-0.1966,-0.1966,-0.1957,-0.1966,-0.1928,-0.1873,-0.192,-0.1916,-0.1876,-0.1715,-0.1705,-0.1689,-0.1826,-0.1823,-0.1821,-0.1723,0,-0.1852,-0.1874,-0.1909,-0.1925,-0.1943,-0.1966,-0.1962,-0.1959,-0.1956,-0.1923,-0.1922,-0.1894,-0.1949,-0.1939,-0.1912,-0.1876,-0.1834,-0.1903,-0.1737,-0.1733,-0.1715,-0.1671,-0.1574,-0.1476,-0.1709,-0.1707,-0.1705,0,-0.1833,-0.1849,-0.1867,-0.1892,-0.1902,-0.1905,-0.1897,-0.189,-0.1864,-0.1854,-0.1838,-0.1828,-0.1813,-0.1837,-0.1761,-0.1799,-0.1763,-0.1734,-0.1728,-0.1693,-0.1694,-0.1517,-0.1442,-0.1682,-0.1684,-0.1686,-0.1687,0,-0.1788,-0.1824,-0.1833,-0.1837,-0.1865,-0.1866,-0.1874,-0.1867,-0.1844,-0.1806,-0.1779,-0.1745,-0.1725,-0.1667,-0.1672,-0.1691,-0.1566,-0.1569,-0.1519,-0.1519,-0.1391,-0.1385,-0.1469,-0.1469,-0.1469,-0.1469,-0.147,0,-0.1754,-0.176,-0.1806,-0.1803,-0.1772,-0.1828,-0.179,-0.1782,-0.1768,-0.1732,-0.1741,-0.17,-0.1675,-0.1626,-0.1615,-0.154,-0.1513,-0.1502,-0.1474,-0.1404,-0.14,-0.1541,-0.155,-0.1466,-0.1466,-0.1467,-0.1468,0,-0.1704,-0.1746,-0.1733,-0.1755,-0.1757,-0.1732,-0.1736,-0.1706,-0.1712,-0.1664,-0.1652,-0.164,-0.1586,-0.1563,-0.1472,-0.1463,-0.139,-0.1364,-0.1319,-0.1288,-0.1413,-0.1425,-0.1271,-0.127,-0.1268,-0.1267,-0.1266,0,-0.167,-0.1668,-0.1671,-0.1658,-0.1666,-0.165,-0.1638,-0.1659,-0.1644,-0.1631,-0.1603,-0.1555,-0.1507,-0.1398,-0.1348,-0.1274,-0.1332,-0.1154,-0.1169,-0.1394,-0.1383,-0.1398,-0.1412,-0.1021,-0.1018,-0.1016,-0.1014,0,-0.1577,-0.1586,-0.157,-0.1547,-0.154,-0.1519,-0.1523,-0.1508,-0.1543,-0.1518,-0.1487,-0.1447,-0.1364,-0.1244,-0.1175,-0.1129,-0.1162,-0.1104,-0.1281,-0.1107,-0.1154,-0.1147,-0.1168,-0.0993,-0.0995,-0.0996,-0.0998,-0.0998,-0.1482,-0.1437,-0.1433,-0.1398,-0.1399,-0.1396,-0.1359,-0.139,-0.1364,-0.1331,-0.1364,-0.1263,-0.122,-0.1045,-0.0989,-0.0944,-0.102,-0.0975,-0.0983,-0.0993,-0.1002,-0.1046,-0.0868,-0.0869,-0.087,-0.0871,-0.0872,0,-0.1339,-0.1318,-0.1287,-0.1257,-0.1232,-0.1275,-0.1275,-0.1228,-0.1192,-0.1189,-0.1152,-0.0976,-0.0903,-0.0862,-0.0757,-0.0744,-0.0738,-0.0718,-0.071,-0.0731,-0.075,-0.0748,-0.0545,-0.0544,-0.0543,-0.0543,0,0,-0.1264,-0.1187,-0.1175,-0.1095,-0.1095,-0.1027,-0.1016,-0.0966,-0.0935,-0.0857,-0.0801,-0.0855,-0.0829,-0.0684,-0.0658,-0.0584,-0.0652,-0.0556,-0.0816,-0.0827,-0.0845,-0.0894,-0.0914,0,0,0,0,0]},{"header":{"parameterUnit":"m.s-1","parameterCategory":2,"la1":30.2991,"la2":30.254,"lo1":-89.0895,"lo2":-89.0444,"dy":0.0017,"dx":0.0017,"nx":28,"ny":28,"refTime":"2025-04-20T03:00:00:Z","depth":"2","parameterNumber":3,"parameterNumberName":"V-component_of_CURRENTS"},"data":[0,0,0,0,0,0,0,0,0,0,0,0,0,0,0,0,0,0,0,0,0,0,0,0,0,0,0,0,0,0,0,0,0,0,0,0,0,0,0,0,0,0,0,0,0,0,0,0,0,0,0,0,0,0,0,0,0,0,-0.0386,-0.0385,0,-0.0282,-0.0281,-0.0279,-0.0204,-0.0204,-0.0203,-0.0202,-0.0058,-0.0054,-0.0051,0,0,0,0,0,0,0,0,0,0,0,0,0,-0.0444,-0.0444,-0.0386,-0.0384,-0.0383,-0.0282,-0.028,-0.0279,-0.0204,-0.0204,-0.0203,-0.0202,-0.0059,-0.0055,-0.0051,0,0,0,0,0,0,0,0,0,0,0,0,0,-0.0387,-0.0444,-0.0386,-0.0334,-0.0328,-0.0282,-0.028,-0.0279,-0.0204,-0.0204,-0.0203,-0.0202,-0.006,-0.0055,-0.005,-0.0038,0,0,-0.0035,-0.0033,0,0,0,0,0,0,0,0,-0.0391,-0.0385,-0.0343,-0.0337,-0.0331,-0.0255,-0.0248,-0.0196,-0.0205,-0.0251,-0.0202,-0.0201,-0.0121,-0.0111,-0.0093,-0.0031,-0.0025,-0.0035,-0.0032,-0.003,-0.0028,0,0,0,0,0,0,0,-0.0395,-0.0389,-0.0344,-0.0342,-0.0334,-0.029,-0.0282,-0.0237,-0.0191,-0.0247,-0.0241,-0.0231,-0.0117,-0.0098,-0.0089,-0.0022,-0.0035,-0.003,-0.0027,-0.0025,0.0086,0.0086,0,0,0,0,0,0,-0.0413,-0.0393,-0.0348,-0.0341,-0.036,-0.029,-0.028,-0.028,-0.0192,-0.0179,-0.0232,-0.0228,-0.0107,-0.0095,-0.0084,-0.0034,-0.003,-0.0025,-0.0022,0.0086,0.0086,0.0086,0,0,0,0,0,0,-0.0415,-0.0411,-0.0352,-0.0364,-0.0353,-0.0291,-0.029,-0.0279,-0.0255,-0.0181,-0.0166,-0.022,-0.0106,-0.0091,-0.0041,-0.0029,-0.0023,-0.0018,0.0086,0.0086,0.0086,0.0048,0,0,0,0,0,0,-0.0417,-0.0412,-0.0409,-0.0366,-0.0354,-0.0326,-0.0291,-0.0277,-0.025,-0.0244,-0.0166,-0.0152,-0.0104,-0.0048,-0.0036,-0.0022,-0.0014,0.0086,0.0086,0.0086,0.0049,0.0046,0.0044,0,0,0,0,0,-0.042,-0.0425,-0.041,-0.0404,-0.0355,-0.0326,-0.0316,-0.0267,-0.0251,-0.0242,-0.0189,-0.0154,-0.0039,-0.0045,-0.003,-0.0014,0.0086,0.0086,0.0086,0.005,0.0047,0.0044,0,0,0,0,0,0,-0.045,-0.0417,-0.0399,-0.0394,-0.0363,-0.0314,-0.0295,-0.0273,-0.0226,-0.0214,-0.0152,-0.0134,-0.0087,-0.0051,-0.0058,0.0017,0.0028,0.0031,-0.0004,-0.0007,-0.0009,-0.0012,-0.001,0,0,0,0,0,-0.0457,-0.045,-0.0414,-0.0408,-0.0393,-0.0347,-0.0327,-0.03,-0.0256,-0.0234,-0.0182,-0.0126,-0.0077,-0.0043,0.0003,0.0044,0.0071,0.0063,0.006,0.0058,0.0064,0.0105,0.0107,0.0086,0.0086,0.0086,0,0,-0.0472,-0.0447,-0.0446,-0.0413,-0.0381,-0.0364,-0.0332,-0.0306,-0.0288,-0.0226,-0.0181,-0.0134,-0.0071,-0.0022,0.0003,0.0014,0.0075,0.0058,0.0056,0.0064,0.0105,0.0107,0.0109,0.0086,0.0086,0.0086,0,0,-0.049,-0.0471,-0.0468,-0.0445,-0.0402,-0.0373,-0.0372,-0.0325,-0.0297,-0.0257,-0.0206,-0.0154,-0.0083,-0.0028,0.0006,0.0016,0.0055,0.0027,0.0024,0.0062,0.0065,0.0067,0.0091,0.0095,0.0033,0.0033,0.0033,0,-0.0507,-0.0496,-0.0462,-0.0449,-0.0428,-0.0384,-0.0376,-0.0346,-0.0289,-0.026,-0.0248,-0.0134,-0.0083,-0.0013,-0.0007,0.0013,0.0033,0.003,0.0059,0.0062,0.0065,0.0089,0.0095,0.0031,0.0031,0.0031,0.0031,0,-0.0527,-0.0507,-0.0503,-0.0471,-0.0447,-0.0434,-0.0391,-0.0364,-0.0328,-0.0287,-0.0219,-0.0152,-0.008,-0.0059,-0.0025,0.0026,0.0032,0.0045,0.0065,0.0065,0.009,0.0097,0.0028,0.0029,0.0029,0.003,0,0,-0.0587,-0.0531,-0.0525,-0.0504,-0.0458,-0.0441,-0.0411,-0.0363,-0.0334,-0.0277,-0.0232,-0.0146,-0.0106,-0.0065,-0.0016,0.0025,0.006,0.0043,0.0046,0.0063,0.0134,0.016,0.017,0.0076,0.0077,0.0078,0.0138,0,-0.0609,-0.0588,-0.0552,-0.0528,-0.0512,-0.0462,-0.0436,-0.0385,-0.0335,-0.0283,-0.0206,-0.0147,-0.011,-0.0075,-0.0028,0.004,0.0077,0.0042,0.0135,0.0138,0.0159,0.0179,0.0154,0.0208,0.0145,0.0146,0.0147,0,-0.0636,-0.0613,-0.0601,-0.0539,-0.0529,-0.0513,-0.0453,-0.0422,-0.0341,-0.03,-0.0228,-0.017,-0.0089,-0.0071,0.0046,0.002,0.0074,0.0121,0.0124,0.017,0.0177,0.0202,0.0223,0.0159,0.0158,0.0157,0.0156,0,-0.0686,-0.0639,-0.0627,-0.0614,-0.0553,-0.0535,-0.05,-0.0427,-0.039,-0.0312,-0.0275,-0.0178,-0.0122,-0.0045,0.0061,0.0051,0.0179,0.0177,0.0251,0.0252,0.0263,0.0264,0.0253,0.0253,0.0253,0.0253,0.0253,0,-0.0718,-0.0703,-0.0651,-0.0648,-0.0625,-0.0571,-0.0537,-0.0489,-0.0418,-0.0363,-0.0288,-0.0226,-0.0112,-0.0021,0.0056,0.0182,0.0178,0.026,0.0278,0.0247,0.0246,0.023,0.0227,0.0255,0.0255,0.0254,0.0254,0,-0.0764,-0.0734,-0.0715,-0.0664,-0.0648,-0.0633,-0.0565,-0.0536,-0.0468,-0.04,-0.0376,-0.0254,-0.0131,-0.0018,0.012,0.0185,0.0291,0.0334,0.0285,0.0297,0.0333,0.0326,0.0414,0.0415,0.0417,0.0418,0.0419,0,-0.0785,-0.0782,-0.0739,-0.0731,-0.0708,-0.0675,-0.065,-0.0574,-0.0534,-0.0406,-0.0373,-0.0241,-0.0124,0.008,0.0209,0.0347,0.0343,0.0399,0.0385,0.0344,0.0353,0.0345,0.0337,0.0374,0.0374,0.0374,0.0375,0,-0.082,-0.0805,-0.0785,-0.0773,-0.0753,-0.0723,-0.0677,-0.065,-0.0548,-0.0466,-0.0336,-0.0234,-0.0036,0.0126,0.0298,0.037,0.0372,0.0412,0.0399,0.0339,0.0312,0.0319,0.0311,0.0378,0.0378,0.0378,0.0378,0.0377,-0.0839,-0.0832,-0.081,-0.0795,-0.0783,-0.076,-0.072,-0.0654,-0.0565,-0.0414,-0.0321,-0.0157,-0.0019,0.023,0.0349,0.0439,0.0441,0.0452,0.0449,0.0445,0.0432,0.041,0.049,0.0491,0.0491,0.0491,0.0491,0,-0.0844,-0.0834,-0.083,-0.081,-0.0815,-0.0794,-0.0724,-0.0664,-0.0544,-0.0396,-0.0243,-0.0108,0.0093,0.0218,0.0375,0.0481,0.0456,0.0482,0.0427,0.0424,0.0421,0.0403,0.0456,0.0456,0.0457,0.0457,0,0,-0.0842,-0.0834,-0.0828,-0.0835,-0.0834,-0.0797,-0.0748,-0.0664,-0.0537,-0.0365,-0.0244,-0.0054,0.0097,0.0195,0.0324,0.0399,0.0385,0.0399,0.0418,0.0337,0.0333,0.0396,0.0365,0,0,0,0,0]}],[{"header":{"parameterUnit":"m.s-1","parameterCategory":2,"la1":30.2991,"la2":30.254,"lo1":-89.0895,"lo2":-89.0444,"dy":0.0017,"dx":0.0017,"nx":28,"ny":28,"refTime":"2025-04-20T03:00:00:Z","depth":"4","parameterNumber":2,"parameterNumberName":"U-component_of_CURRENTS"},"data":[0,0,0,0,0,0,0,0,0,0,0,0,0,0,0,0,0,0,0,0,0,0,0,0,0,0,0,0,0,0,0,0,0,0,0,0,0,0,0,0,0,0,0,0,0,0,0,0,0,0,0,0,0,0,0,0,0,0,-0.0942,-0.0943,0,-0.0999,-0.1,-0.1,-0.1071,-0.1072,-0.1073,-0.1074,-0.1145,-0.1146,-0.1147,0,0,0,0,0,0,0,0,0,0,0,0,0,-0.0887,-0.0888,-0.0942,-0.0943,-0.0943,-0.0999,-0.1,-0.1001,-0.1071,-0.1072,-0.1074,-0.1075,-0.1145,-0.1146,-0.1147,0,0,0,0,0,0,0,0,0,0,0,0,0,-0.0926,-0.0888,-0.0942,-0.0984,-0.0988,-0.0998,-0.1,-0.1001,-0.1071,-0.1072,-0.1074,-0.1075,-0.1144,-0.1146,-0.1147,-0.1127,0,0,-0.1152,-0.1152,0,0,0,0,0,0,0,0,-0.0924,-0.0928,-0.0977,-0.0981,-0.0986,-0.1028,-0.1006,-0.1043,-0.1071,-0.1041,-0.1074,-0.1076,-0.1105,-0.111,-0.1119,-0.113,-0.1133,-0.1152,-0.1153,-0.1153,-0.1154,0,0,0,0,0,0,0,-0.0921,-0.0926,-0.0966,-0.0978,-0.0983,-0.0997,-0.1004,-0.1014,-0.1066,-0.1044,-0.1049,-0.1052,-0.1108,-0.1118,-0.1122,-0.1134,-0.1152,-0.1153,-0.1154,-0.1155,-0.1217,-0.1217,0,0,0,0,0,0,-0.0909,-0.0923,-0.0965,-0.0968,-0.0956,-0.0997,-0.1005,-0.1014,-0.1066,-0.1074,-0.1051,-0.1055,-0.1115,-0.112,-0.1124,-0.1173,-0.1153,-0.1155,-0.1156,-0.1216,-0.1217,-0.1218,0,0,0,0,0,0,-0.0908,-0.0913,-0.0962,-0.0945,-0.0952,-0.0996,-0.1006,-0.1015,-0.1046,-0.107,-0.108,-0.1075,-0.1116,-0.1122,-0.1154,-0.1174,-0.1155,-0.1157,-0.1215,-0.1216,-0.1217,-0.1226,0,0,0,0,0,0,-0.0906,-0.0912,-0.0912,-0.0944,-0.0953,-0.0978,-0.1005,-0.1015,-0.1043,-0.105,-0.1093,-0.11,-0.1118,-0.1152,-0.1156,-0.1176,-0.1158,-0.1214,-0.1215,-0.1217,-0.1225,-0.1227,-0.123,0,0,0,0,0,-0.0904,-0.0895,-0.0912,-0.0917,-0.0953,-0.0978,-0.0984,-0.1021,-0.1043,-0.1055,-0.109,-0.11,-0.1164,-0.1154,-0.1158,-0.1179,-0.1213,-0.1215,-0.1217,-0.1224,-0.1227,-0.123,0,0,0,0,0,0,-0.0877,-0.0902,-0.0922,-0.0924,-0.0955,-0.099,-0.1,-0.1026,-0.1062,-0.1082,-0.1104,-0.1113,-0.115,-0.1159,-0.1147,-0.1202,-0.1192,-0.1195,-0.1196,-0.12,-0.1202,-0.119,-0.1159,0,0,0,0,0,-0.0868,-0.0876,-0.0905,-0.0915,-0.0925,-0.0966,-0.0981,-0.1016,-0.1049,-0.1069,-0.1099,-0.1132,-0.1155,-0.1174,-0.1196,-0.1219,-0.1206,-0.1237,-0.124,-0.1241,-0.1236,-0.1222,-0.1222,-0.1223,-0.1223,-0.1223,0,0,-0.0868,-0.0879,-0.0888,-0.091,-0.0938,-0.0966,-0.0981,-0.1018,-0.1051,-0.1068,-0.1121,-0.114,-0.1162,-0.1196,-0.1214,-0.1211,-0.1238,-0.1244,-0.1245,-0.1238,-0.1224,-0.1224,-0.1223,-0.1224,-0.1224,-0.1224,0,0,-0.0876,-0.0877,-0.0893,-0.0909,-0.0948,-0.0974,-0.0987,-0.1035,-0.1064,-0.1109,-0.1131,-0.1147,-0.1202,-0.1207,-0.1218,-0.1239,-0.1248,-0.127,-0.1276,-0.1264,-0.1263,-0.1262,-0.1253,-0.1252,-0.1275,-0.1275,-0.1275,0,-0.0874,-0.0897,-0.0902,-0.092,-0.0939,-0.098,-0.1012,-0.1039,-0.1098,-0.1114,-0.1134,-0.1183,-0.1197,-0.1212,-0.1234,-0.1241,-0.125,-0.1263,-0.1265,-0.1264,-0.1263,-0.1254,-0.1252,-0.1275,-0.1275,-0.1275,-0.1275,0,-0.0884,-0.0916,-0.0925,-0.0964,-0.0983,-0.1016,-0.1052,-0.1081,-0.1122,-0.1151,-0.1182,-0.1193,-0.1217,-0.123,-0.1246,-0.1254,-0.1268,-0.1265,-0.1253,-0.1263,-0.1253,-0.1251,-0.1276,-0.1276,-0.1276,-0.1276,0,0,-0.0855,-0.0922,-0.0928,-0.0967,-0.101,-0.1032,-0.1071,-0.1112,-0.1141,-0.1178,-0.1205,-0.1224,-0.1229,-0.124,-0.1249,-0.1244,-0.1243,-0.1269,-0.1268,-0.1251,-0.1237,-0.1157,-0.1147,-0.1259,-0.1258,-0.1258,-0.1235,0,-0.0873,-0.0924,-0.0948,-0.1016,-0.1051,-0.108,-0.1111,-0.115,-0.1186,-0.1218,-0.1211,-0.1245,-0.1234,-0.1257,-0.1244,-0.1252,-0.1239,-0.1251,-0.1237,-0.1236,-0.1156,-0.1141,-0.1256,-0.1233,-0.1233,-0.1232,-0.1232,0,-0.0872,-0.0912,-0.0977,-0.1057,-0.1071,-0.1111,-0.1157,-0.1194,-0.1227,-0.1253,-0.126,-0.1273,-0.1265,-0.1261,-0.1234,-0.1257,-0.1247,-0.124,-0.1239,-0.1156,-0.1151,-0.122,-0.1227,-0.1228,-0.1228,-0.1228,-0.1228,0,-0.0852,-0.0933,-0.099,-0.101,-0.1094,-0.1123,-0.1166,-0.1207,-0.1236,-0.1277,-0.1298,-0.1291,-0.1294,-0.1274,-0.1246,-0.1262,-0.1219,-0.1227,-0.1133,-0.1128,-0.1204,-0.1205,-0.1193,-0.1193,-0.1193,-0.1193,-0.1193,0,-0.085,-0.0899,-0.099,-0.1018,-0.108,-0.1132,-0.1192,-0.1224,-0.127,-0.1293,-0.1316,-0.131,-0.1304,-0.1277,-0.1255,-0.1173,-0.1211,-0.112,-0.1108,-0.1211,-0.1213,-0.1202,-0.1203,-0.1193,-0.1193,-0.1193,-0.1193,0,-0.0825,-0.0888,-0.0958,-0.1049,-0.1082,-0.1122,-0.121,-0.1239,-0.1288,-0.1314,-0.1328,-0.1333,-0.1288,-0.1258,-0.1222,-0.1165,-0.1111,-0.1073,-0.1183,-0.118,-0.1033,-0.1036,-0.0968,-0.0965,-0.0962,-0.096,-0.0958,0,-0.0812,-0.0851,-0.0963,-0.1004,-0.1053,-0.1125,-0.1167,-0.124,-0.1263,-0.1304,-0.1298,-0.1285,-0.1269,-0.1131,-0.1124,-0.1049,-0.1032,-0.1007,-0.1014,-0.101,-0.1006,-0.1013,-0.1019,-0.0954,-0.0953,-0.0952,-0.0952,0,-0.0782,-0.0832,-0.0892,-0.0971,-0.1034,-0.1091,-0.1155,-0.1164,-0.1225,-0.1283,-0.1225,-0.1181,-0.1124,-0.1065,-0.1009,-0.096,-0.1027,-0.0978,-0.0984,-0.099,-0.0992,-0.0992,-0.1001,-0.0942,-0.0944,-0.0945,-0.0945,0,-0.0751,-0.0783,-0.0862,-0.0923,-0.0993,-0.1015,-0.107,-0.1082,-0.1109,-0.1151,-0.1129,-0.1099,-0.1113,-0.1018,-0.0968,-0.0908,-0.0894,-0.0868,-0.0879,-0.089,-0.087,-0.0862,-0.0746,0,0,0,0,0,-0.07,-0.0735,-0.0799,-0.086,-0.0919,-0.0946,-0.1032,-0.108,-0.114,-0.1071,-0.1095,-0.1032,-0.0946,-0.0934,-0.085,-0.0931,-0.0902,-0.0832,-0.088,-0.089,-0.0901,-0.0884,0,0,0,0,0,0,-0.0674,-0.0733,-0.0773,-0.0776,-0.0789,-0.0837,-0.088,-0.0933,-0.0901,-0.0962,-0.0913,-0.0959,-0.0884,-0.0954,-0.0817,-0.0815,-0.0824,-0.0827,-0.0825,-0.0884,-0.0894,-0.0903,-0.0888,0,0,0,0,0]},{"header":{"parameterUnit":"m.s-1","parameterCategory":2,"la1":30.2991,"la2":30.254,"lo1":-89.0895,"lo2":-89.0444,"dy":0.0017,"dx":0.0017,"nx":28,"ny":28,"refTime":"2025-04-20T03:00:00:Z","depth":"4","parameterNumber":3,"parameterNumberName":"V-component_of_CURRENTS"},"data":[0,0,0,0,0,0,0,0,0,0,0,0,0,0,0,0,0,0,0,0,0,0,0,0,0,0,0,0,0,0,0,0,0,0,0,0,0,0,0,0,0,0,0,0,0,0,0,0,0,0,0,0,0,0,0,0,0,0,-0.0399,-0.0399,0,-0.0362,-0.0361,-0.0361,-0.0349,-0.0349,-0.0349,-0.0349,-0.026,-0.0258,-0.0255,0,0,0,0,0,0,0,0,0,0,0,0,0,-0.0429,-0.0428,-0.04,-0.0399,-0.0398,-0.0362,-0.0361,-0.0361,-0.0349,-0.0349,-0.0349,-0.0349,-0.0261,-0.0258,-0.0255,0,0,0,0,0,0,0,0,0,0,0,0,0,-0.0406,-0.0428,-0.04,-0.0388,-0.0386,-0.0362,-0.0361,-0.0361,-0.0349,-0.0349,-0.0349,-0.0349,-0.0262,-0.0258,-0.0255,-0.0227,0,0,-0.0243,-0.0242,0,0,0,0,0,0,0,0,-0.0408,-0.0405,-0.039,-0.0389,-0.0387,-0.036,-0.0339,-0.0313,-0.0349,-0.0364,-0.0349,-0.035,-0.0288,-0.0282,-0.0276,-0.0223,-0.0219,-0.0243,-0.0241,-0.0239,-0.0238,0,0,0,0,0,0,0,-0.0409,-0.0407,-0.0385,-0.0389,-0.0388,-0.0373,-0.0371,-0.0334,-0.0325,-0.0362,-0.0361,-0.0356,-0.0287,-0.028,-0.0274,-0.0218,-0.0243,-0.024,-0.0237,-0.0236,-0.0147,-0.0147,0,0,0,0,0,0,-0.0415,-0.0408,-0.0386,-0.0384,-0.0398,-0.0373,-0.037,-0.0369,-0.0326,-0.032,-0.0356,-0.0356,-0.0286,-0.0278,-0.0271,-0.025,-0.0239,-0.0235,-0.0233,-0.0147,-0.0147,-0.0147,0,0,0,0,0,0,-0.0415,-0.0413,-0.0388,-0.0395,-0.039,-0.0372,-0.0371,-0.0368,-0.0367,-0.0322,-0.0315,-0.036,-0.0286,-0.0276,-0.0245,-0.0245,-0.0234,-0.023,-0.0148,-0.0147,-0.0147,-0.0198,0,0,0,0,0,0,-0.0417,-0.0414,-0.0428,-0.0395,-0.039,-0.0379,-0.037,-0.0367,-0.0363,-0.0363,-0.0322,-0.0314,-0.0285,-0.0251,-0.0241,-0.024,-0.0227,-0.0148,-0.0147,-0.0147,-0.0197,-0.02,-0.0203,0,0,0,0,0,-0.0418,-0.0432,-0.0429,-0.0426,-0.0406,-0.0379,-0.0375,-0.0363,-0.0363,-0.0364,-0.0337,-0.0316,-0.0243,-0.0247,-0.0236,-0.0234,-0.0148,-0.0148,-0.0147,-0.0195,-0.0199,-0.0203,0,0,0,0,0,0,-0.0448,-0.0431,-0.0427,-0.0435,-0.0412,-0.0377,-0.038,-0.0368,-0.0349,-0.035,-0.0312,-0.0301,-0.0276,-0.0246,-0.0252,-0.0208,-0.0192,-0.019,-0.0233,-0.0236,-0.0239,-0.0238,-0.0224,0,0,0,0,0,-0.0461,-0.0469,-0.0441,-0.0445,-0.0438,-0.0411,-0.0404,-0.039,-0.0363,-0.0356,-0.0327,-0.0295,-0.0264,-0.0245,-0.0213,-0.0185,-0.0145,-0.0177,-0.018,-0.0182,-0.0174,-0.0111,-0.0107,-0.0146,-0.0146,-0.0146,0,0,-0.0471,-0.0464,-0.0467,-0.0453,-0.0436,-0.0424,-0.0408,-0.0394,-0.0384,-0.0347,-0.0331,-0.0304,-0.026,-0.0234,-0.0219,-0.0209,-0.0154,-0.0182,-0.0185,-0.0175,-0.011,-0.0106,-0.0102,-0.0146,-0.0146,-0.0146,0,0,-0.0481,-0.0489,-0.0494,-0.0479,-0.0458,-0.0442,-0.044,-0.0409,-0.04,-0.0376,-0.035,-0.0327,-0.0278,-0.025,-0.0228,-0.0226,-0.0175,-0.0214,-0.0224,-0.0163,-0.0159,-0.0155,-0.0117,-0.0109,-0.0212,-0.0213,-0.0213,0,-0.0497,-0.0496,-0.0489,-0.0484,-0.0474,-0.0452,-0.0443,-0.0428,-0.0391,-0.0373,-0.0377,-0.0307,-0.0286,-0.0241,-0.0249,-0.0233,-0.019,-0.0217,-0.0167,-0.0162,-0.0157,-0.0118,-0.0109,-0.0215,-0.0215,-0.0214,-0.0214,0,-0.0499,-0.0503,-0.0502,-0.0493,-0.0484,-0.0472,-0.0448,-0.0436,-0.0426,-0.0399,-0.0361,-0.0331,-0.0285,-0.0282,-0.0267,-0.0221,-0.0201,-0.0182,-0.016,-0.0156,-0.0116,-0.0105,-0.0218,-0.0218,-0.0217,-0.0216,0,0,-0.0522,-0.0508,-0.0509,-0.0504,-0.0487,-0.0474,-0.0463,-0.0433,-0.0411,-0.0389,-0.0351,-0.0327,-0.0305,-0.0279,-0.0255,-0.0214,-0.0167,-0.0186,-0.0182,-0.0153,-0.0036,-0.0066,-0.0057,-0.0129,-0.0127,-0.0126,-0.0029,0,-0.0525,-0.052,-0.0511,-0.0504,-0.0499,-0.0478,-0.0465,-0.0436,-0.0408,-0.0368,-0.0335,-0.0295,-0.0303,-0.0281,-0.0243,-0.0178,-0.0137,-0.0195,-0.0039,-0.0035,-0.0065,-0.0045,-0.012,-0.0021,-0.0018,-0.0017,-0.0015,0,-0.0531,-0.0527,-0.0524,-0.0503,-0.0499,-0.0494,-0.0461,-0.0442,-0.0384,-0.0358,-0.0313,-0.0275,-0.0225,-0.023,-0.0122,-0.0152,-0.0099,-0.0056,-0.005,-0.0049,-0.0045,-0.0019,0.0005,0.0003,0.0002,0.0,-0.0001,0,-0.0551,-0.0535,-0.0536,-0.053,-0.0507,-0.0501,-0.0486,-0.0441,-0.0414,-0.0346,-0.0312,-0.0241,-0.0202,-0.0123,-0.0062,-0.0073,0.0065,0.0065,0.0088,0.0086,0.0106,0.0101,0.0155,0.0154,0.0154,0.0154,0.0154,0,-0.056,-0.056,-0.0547,-0.0549,-0.0542,-0.0518,-0.0496,-0.0466,-0.0408,-0.0363,-0.031,-0.0258,-0.0168,-0.0088,-0.0032,0.0054,0.0092,0.0095,0.0117,0.0079,0.007,0.0113,0.0107,0.0158,0.0157,0.0156,0.0155,0,-0.0581,-0.0575,-0.0575,-0.0559,-0.0557,-0.0552,-0.0517,-0.0489,-0.0436,-0.0373,-0.0351,-0.0253,-0.0152,-0.007,0.0064,0.0088,0.0176,0.0199,0.0142,0.0158,0.0149,0.0139,0.0243,0.0243,0.0242,0.0242,0.0242,0,-0.0586,-0.0592,-0.0593,-0.0599,-0.0596,-0.0583,-0.0572,-0.0517,-0.0479,-0.0371,-0.0336,-0.0227,-0.0161,0.0004,0.008,0.0195,0.0199,0.0239,0.0196,0.0151,0.0162,0.0152,0.0143,0.0242,0.0242,0.0242,0.0242,0,-0.0595,-0.0606,-0.0608,-0.0624,-0.0625,-0.0609,-0.0582,-0.0553,-0.0473,-0.0426,-0.0305,-0.0213,-0.0099,0.0008,0.0095,0.0172,0.021,0.0238,0.0238,0.0198,0.0152,0.016,0.0151,0.0242,0.0242,0.0242,0.0242,0,-0.0604,-0.0611,-0.0625,-0.0631,-0.0643,-0.0627,-0.0607,-0.0541,-0.0491,-0.0365,-0.0326,-0.0196,-0.0113,-0.0002,0.0079,0.0148,0.0157,0.0164,0.0169,0.017,0.0104,0.0031,0.0114,0,0,0,0,0,-0.0598,-0.0609,-0.0625,-0.0634,-0.0649,-0.0652,-0.0607,-0.0575,-0.0497,-0.0414,-0.0362,-0.0253,-0.0109,-0.0041,0.0024,0.0053,0.0148,0.0128,0.0153,0.024,0.0241,0.0171,0,0,0,0,0,0,-0.0594,-0.0616,-0.0622,-0.0635,-0.065,-0.0653,-0.0628,-0.0575,-0.0513,-0.0429,-0.0348,-0.0271,-0.0134,-0.0158,0.0011,0.0035,0.0053,0.0205,0.0206,0.024,0.0241,0.0241,0.017,0,0,0,0,0]}]]